CAPE
nan nan nan nan nan nan nan nan nan nan nan nan nan nan nan nan nan nan nan nan nan nan nan nan nan nan nan nan nan nan nan nan nan nan nan nan nan nan nan nan nan nan nan nan nan nan nan nan nan nan nan nan nan nan nan nan nan nan nan nan nan nan nan nan nan nan nan nan nan nan nan nan nan nan nan nan 0 0 1 2 2 4 5 5 5 6
nan nan nan nan nan nan nan nan nan nan nan nan nan nan nan nan nan nan nan nan nan nan nan nan nan nan nan nan nan nan nan nan nan nan nan nan nan nan nan nan nan nan nan nan nan nan nan nan nan nan nan nan nan nan nan nan nan nan nan nan nan nan nan nan nan nan nan nan nan nan nan nan nan nan nan nan 0 0 1 3 3 5 6 5 5 6
nan nan nan nan nan nan nan nan nan nan nan nan nan nan nan nan nan nan nan nan nan nan nan nan nan nan nan nan nan nan nan nan nan nan nan nan nan nan nan nan nan nan nan nan nan nan nan nan nan nan nan nan nan nan nan nan nan nan nan nan nan nan nan nan nan nan nan nan nan nan nan nan nan nan nan 0 1 1 2 4 4 6 8 8 8 7
nan nan nan nan nan nan nan nan nan nan nan nan nan nan nan nan nan nan nan nan nan nan nan nan nan nan nan nan nan nan nan nan nan nan nan nan nan nan nan nan nan nan nan nan nan nan nan nan nan nan nan nan nan nan nan nan nan nan nan nan nan nan nan nan nan nan nan nan nan nan nan nan nan nan nan 0 1 1 3 5 5 7 8 8 8 8
nan nan nan nan nan nan nan nan nan nan nan nan nan nan nan nan nan nan nan nan nan nan nan nan nan nan nan nan nan nan nan nan 0 0 1 1 1 1 0 nan nan nan nan nan nan nan nan nan nan nan nan nan nan nan nan nan nan nan nan nan nan nan nan nan nan nan nan nan nan nan nan nan nan nan 0 0 1 1 3 5 5 6 7 8 8 8
nan nan nan nan nan nan nan nan nan nan nan nan nan nan nan nan nan nan nan nan nan nan nan nan nan nan nan nan nan nan nan 1 1 1 1 1 1 1 0 nan nan nan nan nan nan nan nan nan nan nan nan nan nan nan nan nan nan nan nan nan nan nan nan nan nan nan nan nan nan nan nan nan nan nan 0 1 1 1 2 4 4 5 6 7 7 7
nan nan nan nan nan nan nan nan nan nan nan nan nan nan nan nan nan nan nan nan nan nan nan nan nan nan nan nan 0 0 1 2 3 3 3 3 2 2 1 0 0 nan nan nan nan nan nan nan nan nan nan nan nan nan nan nan nan nan nan nan nan nan nan nan nan nan nan nan nan nan nan nan 0 0 0 1 1 1 2 3 3 4 5 6 6 6
nan nan nan nan nan nan nan nan nan nan nan nan nan nan nan nan nan nan nan nan nan nan nan nan nan nan nan nan nan nan nan nan 0 0 3 7 5 5 3 2 2 0 0 nan nan nan nan nan nan nan nan nan nan nan nan nan nan nan nan nan nan nan nan nan nan nan nan nan nan nan nan 0 0 0 1 2 2 2 2 2 2 2 2 2 2 3
nan nan nan nan nan nan nan nan nan nan nan nan nan nan nan nan nan nan nan nan nan nan nan nan nan nan nan nan nan nan nan nan nan nan nan nan nan nan 3 3 3 1 0 nan nan nan nan nan nan nan nan nan nan nan nan nan nan nan nan nan nan nan nan nan nan nan nan nan nan nan nan 0 1 1 1 2 1 1 1 1 1 1 1 1 1 0
nan nan nan nan nan nan nan nan nan nan nan nan nan nan nan nan nan nan nan nan nan nan nan nan nan nan nan nan nan nan nan 3 11 11 9 0 8 8 1 0 0 0 0 0 0 nan nan nan nan nan nan nan nan nan nan nan nan nan nan nan nan nan nan nan nan nan nan nan nan nan 0 0 1 1 1 1 1 1 1 0 0 0 0 0 0 0
nan nan nan nan nan nan nan nan nan nan nan nan nan nan nan nan nan nan nan nan nan nan nan nan nan nan nan nan nan nan nan nan 0 0 8 3 3 3 2 0 0 1 1 0 0 0 0 0 0 0 0 nan nan nan nan nan nan nan nan nan nan nan nan nan nan nan nan nan 0 0 0 1 1 1 1 1 1 1 1 0 0 0 0 0 0 0
nan nan nan nan nan nan nan nan nan nan nan nan nan nan nan nan nan nan nan nan nan nan nan nan nan nan nan nan nan nan nan nan nan nan nan nan 1 1 0 1 1 2 2 2 2 1 0 0 0 0 nan nan nan nan nan nan nan nan nan nan nan nan nan nan nan nan nan nan 0 0 0 1 1 1 1 1 1 1 1 0 0 0 nan nan nan nan
nan nan nan nan nan nan nan nan nan nan nan nan nan nan nan nan nan nan nan nan nan nan nan nan nan nan nan nan nan nan nan nan nan nan nan nan nan nan nan nan nan nan nan nan nan nan 1 0 0 0 nan nan nan nan nan nan nan nan nan nan nan nan nan nan nan nan nan nan 0 0 1 1 1 1 1 1 1 1 1 0 0 nan nan nan nan nan
nan nan nan nan nan nan nan nan nan nan nan nan nan nan nan nan nan nan nan nan nan nan nan nan nan nan nan nan nan nan nan nan nan nan nan nan nan nan nan nan nan nan nan nan nan nan nan nan nan nan 0 nan nan nan nan nan nan nan nan nan nan nan nan nan nan nan nan nan 0 0 1 1 1 1 1 0 0 0 0 nan nan nan nan nan nan nan
nan nan nan nan nan nan nan nan nan nan nan nan nan nan nan nan nan nan nan nan nan nan nan nan nan nan nan nan nan nan nan nan nan nan nan nan nan nan nan nan nan nan nan nan nan nan nan nan nan nan nan nan nan nan nan nan nan nan nan nan nan nan nan nan nan nan nan nan 0 0 0 0 0 0 0 0 0 0 nan nan nan nan nan nan nan nan
nan nan nan nan nan nan nan nan nan nan nan nan nan nan nan nan nan nan nan nan nan nan nan nan nan nan nan nan nan nan nan nan nan nan nan nan nan nan nan nan nan nan nan nan nan nan nan nan nan nan nan nan nan nan nan nan nan nan nan nan nan nan nan nan nan nan nan 0 0 0 0 0 0 0 0 nan nan nan nan nan nan nan nan nan nan nan
nan nan nan nan nan nan nan nan nan nan nan nan nan nan nan nan nan nan nan nan nan nan nan nan nan nan nan nan nan nan nan nan nan nan nan nan nan nan nan nan nan nan nan nan nan nan nan nan nan nan nan 1 nan nan nan nan nan nan nan nan nan nan nan nan nan nan nan 0 0 0 nan nan nan nan nan nan nan nan nan nan nan nan nan nan nan nan
nan nan nan nan nan nan nan nan nan nan nan nan nan nan nan nan nan nan nan nan nan nan nan nan nan nan nan nan nan nan nan nan nan nan nan nan nan nan nan nan nan nan nan nan nan nan nan nan nan nan nan nan nan nan nan nan nan nan nan nan nan nan nan nan nan nan nan 0 nan nan nan nan nan nan nan nan nan nan nan nan nan nan nan nan nan nan
nan nan nan nan nan nan nan nan nan nan nan nan nan nan nan nan nan nan nan nan nan nan nan nan nan nan nan nan nan nan nan nan nan nan nan nan nan nan nan nan nan nan nan nan nan nan nan nan nan nan 0 nan nan nan nan nan nan nan nan nan nan nan nan nan nan nan nan nan nan nan nan nan nan nan nan nan nan nan nan nan nan nan nan nan nan nan
nan nan nan nan nan nan nan nan nan nan nan nan nan nan nan nan nan nan nan nan nan nan nan nan nan nan nan nan nan nan nan nan nan nan nan nan nan nan nan nan nan nan nan nan nan nan nan nan nan nan 0 nan nan nan nan nan nan nan nan nan nan nan nan nan nan nan nan nan nan nan nan nan nan nan nan nan nan nan nan nan nan nan nan nan nan 0
nan nan nan nan nan nan nan nan nan nan nan nan nan nan nan nan nan nan nan nan nan nan nan nan nan nan nan nan nan nan nan nan nan nan nan nan nan nan nan nan nan nan nan nan nan nan nan nan nan nan nan nan nan nan nan nan nan nan nan nan nan nan nan nan nan nan nan nan nan nan nan nan nan nan nan nan nan nan nan nan nan nan nan nan nan 0
nan nan nan nan nan nan nan nan nan nan nan nan nan nan nan nan nan nan nan nan nan nan nan nan nan nan nan nan nan nan nan nan nan nan nan nan nan nan nan nan nan nan nan nan nan nan nan nan nan nan nan nan nan nan nan nan nan nan nan nan nan nan nan nan nan nan nan nan nan nan nan nan nan nan nan nan nan nan nan nan nan nan nan nan nan nan
nan nan nan nan nan nan nan nan nan nan nan nan nan nan nan nan nan nan nan nan nan nan nan nan nan nan nan nan nan nan nan nan nan nan nan nan nan nan nan nan nan nan nan nan nan nan nan nan nan nan 0 nan nan nan nan nan nan nan nan nan nan nan nan nan nan nan nan nan nan nan nan nan nan nan nan nan nan nan nan nan nan nan nan nan nan nan
nan nan nan nan nan nan nan nan nan nan nan nan nan nan nan nan nan nan nan nan nan nan nan nan nan nan nan nan nan nan nan nan nan nan nan nan nan nan nan nan nan nan nan nan nan nan nan nan nan nan nan nan nan nan nan nan nan nan nan nan nan nan nan nan nan nan nan nan nan nan nan nan nan nan nan nan nan nan nan nan nan nan nan nan nan nan
nan nan nan nan nan nan nan nan nan nan nan nan nan nan nan nan nan nan nan nan nan nan nan nan nan nan nan nan nan nan nan nan nan nan nan nan nan nan nan nan nan nan nan nan nan nan nan nan nan nan nan nan nan nan nan nan nan nan nan nan nan nan nan nan nan nan nan nan nan nan nan nan nan nan nan nan nan nan nan nan nan nan nan nan nan nan
nan nan nan nan nan nan 0 1 1 1 nan nan nan nan nan nan nan nan nan nan nan nan nan nan nan nan nan nan nan nan nan nan nan nan nan nan nan nan nan nan nan nan nan nan nan nan nan nan nan nan nan nan nan nan nan nan nan nan nan nan nan nan nan nan nan nan nan nan nan nan nan nan nan nan nan nan nan nan nan nan nan nan nan nan nan nan
1 0 1 1 1 2 2 3 4 4 3 2 nan nan nan nan nan nan nan nan nan nan nan nan nan nan nan nan nan nan nan nan nan nan nan nan nan nan nan nan nan nan nan nan nan nan nan nan nan nan nan nan nan nan nan nan nan nan nan nan nan nan nan nan nan nan nan nan nan nan nan nan nan nan nan nan nan nan nan nan nan nan nan nan nan nan
2 2 2 2 2 2 3 4 4 4 4 4 3 3 nan nan nan nan nan nan nan nan nan nan nan nan nan nan nan nan nan nan nan nan nan nan nan nan nan nan nan nan nan nan nan nan nan nan nan nan nan nan nan nan nan nan nan nan nan nan nan nan nan nan nan nan nan nan nan nan nan nan nan nan nan nan nan nan nan nan nan nan nan nan nan nan
1 2 2 3 3 3 4 5 5 5 5 5 3 3 nan nan nan nan nan nan nan nan nan nan nan nan nan nan nan nan nan nan nan nan nan nan nan nan nan nan nan nan nan nan nan nan nan nan nan nan nan nan nan nan nan nan nan nan nan nan nan nan nan nan nan nan nan nan nan nan nan nan nan nan nan nan nan nan nan nan nan nan nan nan nan nan
nan 0 1 3 3 4 5 3 6 6 7 6 5 5 nan nan nan nan nan nan nan nan nan nan nan nan nan nan nan nan nan nan nan nan nan nan nan nan nan nan nan nan nan nan nan nan nan nan nan nan nan nan nan nan nan nan nan nan nan nan nan nan nan nan nan nan nan nan nan nan nan nan nan nan nan nan nan nan nan nan nan nan nan nan nan nan
nan nan nan nan nan nan nan nan 3 3 8 9 7 7 nan nan nan nan nan nan nan nan nan nan nan nan nan nan nan nan nan nan nan nan nan nan nan nan nan nan nan nan nan nan nan nan nan nan nan nan nan nan nan nan nan nan nan nan nan nan nan nan nan nan nan nan nan nan nan nan nan nan nan nan nan nan nan nan nan nan nan nan nan nan nan nan
nan nan nan nan nan nan nan nan nan nan nan nan nan nan nan nan nan nan nan nan nan nan nan nan nan nan nan nan nan nan nan nan nan nan nan nan nan nan nan nan nan nan nan nan nan nan nan nan nan nan nan nan nan nan nan nan nan nan nan nan nan nan nan nan nan nan nan nan nan nan nan nan nan nan nan nan nan nan nan nan nan nan nan nan nan nan
nan nan nan nan nan nan nan nan nan nan nan nan nan nan nan nan nan nan nan nan nan nan nan nan nan nan nan nan nan nan nan nan 2 2 nan nan nan nan nan nan nan nan nan nan nan nan nan nan nan nan nan nan nan nan nan nan nan nan nan nan nan nan nan nan nan nan nan nan nan nan nan nan nan nan nan nan nan nan nan nan nan nan nan nan nan nan
nan nan nan nan nan nan nan nan nan nan nan nan nan nan nan nan nan nan nan nan nan nan nan nan nan nan nan nan nan nan nan nan 6 6 nan nan nan nan nan nan nan nan nan nan nan nan nan nan nan nan nan nan nan nan nan nan nan nan nan nan nan nan nan nan nan nan nan nan nan nan nan nan nan nan nan nan nan nan nan nan nan nan nan nan nan nan
nan nan nan nan nan nan nan nan nan nan nan nan nan nan nan nan nan nan nan nan nan nan nan nan nan nan nan nan nan nan nan nan 6 6 nan nan nan nan nan nan nan nan nan nan nan nan nan nan nan nan nan nan nan nan nan nan nan nan nan nan nan nan nan nan nan nan nan nan nan nan nan nan nan nan nan nan nan nan nan nan nan nan nan nan nan nan
nan nan nan nan nan nan nan nan nan nan nan nan nan nan nan nan nan nan nan nan nan nan nan nan nan nan nan nan nan nan nan nan 3 3 0 nan nan nan nan nan nan nan nan nan nan nan nan nan nan nan nan nan nan nan nan nan nan nan nan nan nan nan nan nan nan nan nan nan nan nan nan nan nan nan nan nan nan nan nan nan nan nan nan nan nan nan
nan nan nan nan nan nan nan nan nan nan nan nan nan nan nan nan nan nan nan nan nan nan nan nan nan nan nan nan nan nan nan nan nan nan nan nan nan nan nan nan nan nan nan nan nan nan nan nan nan nan nan nan nan nan nan nan nan nan nan nan nan nan nan nan nan nan nan nan nan nan nan nan nan nan nan nan nan nan nan nan nan nan nan nan nan nan
nan nan nan nan nan nan nan nan nan nan nan nan nan nan nan nan nan nan nan nan nan nan nan nan nan nan nan nan nan nan nan nan nan nan nan nan nan nan nan nan nan nan nan nan nan nan nan nan nan nan nan nan nan nan nan nan nan nan nan nan nan nan nan nan nan nan nan nan nan nan nan nan nan nan nan nan nan nan nan nan nan nan nan nan nan nan
nan nan nan nan nan nan nan nan nan nan nan nan nan nan nan nan nan nan nan nan nan nan nan nan nan nan nan nan nan nan nan nan nan nan nan nan nan nan nan nan nan nan nan nan nan nan nan nan nan nan nan nan nan nan nan nan nan nan nan nan nan nan nan nan nan nan nan nan nan nan nan nan nan nan nan nan nan nan nan nan nan nan nan nan nan nan
nan nan nan nan nan nan nan nan nan nan nan nan nan nan nan nan nan nan nan nan nan nan nan nan nan nan nan nan nan nan nan nan nan nan nan nan nan nan nan nan nan nan nan nan nan nan nan nan nan nan nan nan nan nan nan nan nan nan nan nan nan nan nan nan nan nan nan nan nan nan nan nan nan nan nan nan nan nan nan nan nan nan nan nan nan nan
nan nan nan nan nan nan nan nan nan nan nan nan nan nan nan nan nan nan nan nan nan nan nan nan nan nan nan nan nan nan nan nan nan nan nan nan nan nan nan nan nan nan nan nan nan nan nan nan nan nan nan nan nan nan nan nan nan nan nan nan nan nan nan nan nan nan nan nan nan nan nan nan nan nan nan nan nan nan nan nan nan nan nan nan nan nan
nan nan nan nan nan nan nan nan nan nan nan nan nan nan nan nan nan nan nan nan nan nan nan nan nan nan nan nan nan nan nan nan nan nan nan nan nan nan nan nan nan nan nan nan nan nan nan nan nan nan nan nan nan nan nan nan nan nan nan nan nan nan nan nan nan nan nan nan nan nan nan nan nan nan nan nan nan nan nan nan nan nan nan nan nan nan
nan nan nan nan nan nan nan nan nan nan nan nan nan nan nan nan nan nan nan nan nan nan nan nan nan nan nan nan nan nan nan nan nan nan nan nan nan nan nan nan nan nan nan nan nan nan nan nan nan nan nan nan nan nan nan nan nan nan nan nan nan nan nan nan nan nan nan nan nan nan nan nan nan nan nan nan nan nan nan nan nan nan nan nan nan nan
nan nan nan nan nan nan nan nan nan nan nan nan nan nan nan nan nan nan nan nan nan nan nan nan nan nan nan nan nan nan nan nan nan nan nan nan nan nan nan nan nan nan nan nan nan nan nan nan nan nan nan nan nan nan nan nan nan nan nan nan nan nan nan nan nan nan nan nan nan nan nan nan nan nan nan nan nan nan nan nan nan nan nan nan nan nan
nan nan nan nan nan nan nan nan nan nan nan nan nan nan nan nan nan nan nan nan nan nan nan nan nan nan nan nan nan nan nan nan nan nan nan nan nan nan nan nan nan nan nan nan nan nan nan nan nan nan nan nan nan nan nan nan nan nan nan nan nan nan nan nan nan nan nan nan nan nan nan nan nan nan nan nan nan nan nan nan nan nan nan nan nan nan
nan nan nan nan nan nan nan nan nan nan nan nan nan nan nan nan nan nan nan nan nan nan nan nan nan nan nan nan nan nan nan nan nan nan nan nan nan nan nan nan nan nan nan nan nan nan nan nan nan nan nan nan nan nan nan nan nan nan nan nan nan nan nan nan nan nan nan nan nan nan nan nan nan nan nan nan nan nan nan nan nan nan nan nan nan nan
nan nan nan nan nan nan nan nan nan nan nan nan nan nan nan nan nan nan nan nan nan nan nan nan nan nan nan nan nan nan nan nan nan nan nan nan nan nan nan nan nan nan nan nan nan nan nan nan nan nan nan nan nan nan nan nan nan nan nan nan nan nan nan nan nan nan nan nan nan nan nan nan nan nan nan nan nan nan nan nan nan nan nan nan nan nan
nan nan nan nan nan nan nan nan nan nan nan nan nan nan nan nan nan nan nan nan nan nan nan nan nan nan nan nan nan nan nan nan nan nan nan nan nan nan nan nan nan nan nan nan nan nan nan nan nan nan nan nan nan nan nan nan nan nan nan nan nan nan nan nan nan nan nan nan nan nan nan nan nan nan nan nan nan nan nan nan nan nan nan nan nan nan
nan nan nan nan nan nan nan nan nan nan nan nan nan nan nan nan 1 1 nan nan nan nan nan nan nan nan nan nan nan nan nan nan nan nan nan nan nan nan nan nan nan nan nan nan nan nan nan nan nan nan nan nan nan nan nan nan nan nan nan nan nan nan nan nan nan nan nan nan nan nan nan nan nan nan nan nan nan nan nan nan nan nan nan nan nan nan
nan nan nan nan nan nan nan nan nan nan nan nan nan nan nan nan nan nan nan nan nan nan nan nan nan nan nan nan nan nan nan nan nan nan nan nan nan nan nan nan nan nan nan nan nan nan nan nan nan nan nan nan nan nan nan nan nan nan nan nan nan nan nan nan nan nan nan nan nan nan nan nan nan nan nan nan nan nan nan nan nan nan nan nan nan nan
nan nan nan nan nan nan nan nan nan nan nan nan nan nan nan nan nan nan nan nan nan nan nan nan nan nan nan nan nan nan nan nan nan nan nan nan nan nan nan nan nan nan nan nan nan nan nan nan nan nan nan 4 nan nan nan nan nan nan nan nan nan nan nan nan nan nan nan nan nan nan nan nan nan nan nan nan nan nan nan nan nan nan nan nan nan nan
CIN
nan nan nan nan nan nan nan nan nan nan nan nan nan nan nan nan nan nan nan nan nan nan nan nan nan nan nan nan nan nan nan nan nan nan nan nan nan nan nan nan nan nan nan nan nan nan nan nan nan nan nan nan nan nan nan nan nan nan nan nan nan nan nan nan nan nan nan nan nan nan nan nan nan nan nan nan 0 0 0 0 0 0 0 0 0 0
nan nan nan nan nan nan nan nan nan nan nan nan nan nan nan nan nan nan nan nan nan nan nan nan nan nan nan nan nan nan nan nan nan nan nan nan nan nan nan nan nan nan nan nan nan nan nan nan nan nan nan nan nan nan nan nan nan nan nan nan nan nan nan nan nan nan nan nan nan nan nan nan nan nan nan nan 0 0 0 0 0 0 0 0 0 0
nan nan nan nan nan nan nan nan nan nan nan nan nan nan nan nan nan nan nan nan nan nan nan nan nan nan nan nan nan nan nan nan nan nan nan nan nan nan nan nan nan nan nan nan nan nan nan nan nan nan nan nan nan nan nan nan nan nan nan nan nan nan nan nan nan nan nan nan nan nan nan nan nan nan nan 0 0 0 0 0 0 0 0 0 0 0
nan nan nan nan nan nan nan nan nan nan nan nan nan nan nan nan nan nan nan nan nan nan nan nan nan nan nan nan nan nan nan nan nan nan nan nan nan nan nan nan nan nan nan nan nan nan nan nan nan nan nan nan nan nan nan nan nan nan nan nan nan nan nan nan nan nan nan nan nan nan nan nan nan nan nan 0 0 0 0 0 0 0 0 0 0 0
nan nan nan nan nan nan nan nan nan nan nan nan nan nan nan nan nan nan nan nan nan nan nan nan nan nan nan nan nan nan nan nan 0 0 0 0 0 0 0 nan nan nan nan nan nan nan nan nan nan nan nan nan nan nan nan nan nan nan nan nan nan nan nan nan nan nan nan nan nan nan nan nan nan nan 0 0 0 0 0 0 0 0 0 0 0 0
nan nan nan nan nan nan nan nan nan nan nan nan nan nan nan nan nan nan nan nan nan nan nan nan nan nan nan nan nan nan nan 0 0 0 0 0 0 0 0 nan nan nan nan nan nan nan nan nan nan nan nan nan nan nan nan nan nan nan nan nan nan nan nan nan nan nan nan nan nan nan nan nan nan nan 0 0 0 0 0 0 0 0 0 0 0 0
nan nan nan nan nan nan nan nan nan nan nan nan nan nan nan nan nan nan nan nan nan nan nan nan nan nan nan nan -1 -1 -0 0 0 0 0 0 0 0 0 0 0 nan nan nan nan nan nan nan nan nan nan nan nan nan nan nan nan nan nan nan nan nan nan nan nan nan nan nan nan nan nan nan 0 0 0 0 0 0 0 0 0 0 0 0 0 0
nan nan nan nan nan nan nan nan nan nan nan nan nan nan nan nan nan nan nan nan nan nan nan nan nan nan nan nan nan nan nan nan -3 -3 -1 -0 0 0 0 0 0 0 0 nan nan nan nan nan nan nan nan nan nan nan nan nan nan nan nan nan nan nan nan nan nan nan nan nan nan nan nan 0 0 0 0 0 0 0 0 0 0 0 0 0 0 0
nan nan nan nan nan nan nan nan nan nan nan nan nan nan nan nan nan nan nan nan nan nan nan nan nan nan nan nan nan nan nan nan nan nan nan nan nan nan 0 0 0 0 0 nan nan nan nan nan nan nan nan nan nan nan nan nan nan nan nan nan nan nan nan nan nan nan nan nan nan nan nan 0 0 0 0 0 0 0 0 0 0 0 0 0 0 0
nan nan nan nan nan nan nan nan nan nan nan nan nan nan nan nan nan nan nan nan nan nan nan nan nan nan nan nan nan nan nan -0 0 0 0 -3 0 0 -1 -1 -1 0 0 0 0 nan nan nan nan nan nan nan nan nan nan nan nan nan nan nan nan nan nan nan nan nan nan nan nan nan 0 0 0 0 0 0 0 0 0 0 0 0 0 0 0 0
nan nan nan nan nan nan nan nan nan nan nan nan nan nan nan nan nan nan nan nan nan nan nan nan nan nan nan nan nan nan nan nan -2 -2 -0 -0 -0 -0 -0 0 0 0 0 0 0 0 0 0 0 0 0 nan nan nan nan nan nan nan nan nan nan nan nan nan nan nan nan nan 0 0 0 0 0 0 0 0 0 0 0 0 0 0 0 0 0 0
nan nan nan nan nan nan nan nan nan nan nan nan nan nan nan nan nan nan nan nan nan nan nan nan nan nan nan nan nan nan nan nan nan nan nan nan -4 -4 -7 -6 -6 -1 -0 0 0 0 0 0 0 0 nan nan nan nan nan nan nan nan nan nan nan nan nan nan nan nan nan nan 0 0 0 0 0 0 0 0 0 0 0 0 0 0 nan nan nan nan
nan nan nan nan nan nan nan nan nan nan nan nan nan nan nan nan nan nan nan nan nan nan nan nan nan nan nan nan nan nan nan nan nan nan nan nan nan nan nan nan nan nan nan nan nan nan 0 0 0 -0 nan nan nan nan nan nan nan nan nan nan nan nan nan nan nan nan nan nan 0 0 0 0 0 0 0 0 0 0 0 0 0 nan nan nan nan nan
nan nan nan nan nan nan nan nan nan nan nan nan nan nan nan nan nan nan nan nan nan nan nan nan nan nan nan nan nan nan nan nan nan nan nan nan nan nan nan nan nan nan nan nan nan nan nan nan nan nan 0 nan nan nan nan nan nan nan nan nan nan nan nan nan nan nan nan nan 0 0 0 0 0 0 0 0 0 0 0 nan nan nan nan nan nan nan
nan nan nan nan nan nan nan nan nan nan nan nan nan nan nan nan nan nan nan nan nan nan nan nan nan nan nan nan nan nan nan nan nan nan nan nan nan nan nan nan nan nan nan nan nan nan nan nan nan nan nan nan nan nan nan nan nan nan nan nan nan nan nan nan nan nan nan nan 0 0 0 0 0 0 0 0 0 0 nan nan nan nan nan nan nan nan
nan nan nan nan nan nan nan nan nan nan nan nan nan nan nan nan nan nan nan nan nan nan nan nan nan nan nan nan nan nan nan nan nan nan nan nan nan nan nan nan nan nan nan nan nan nan nan nan nan nan nan nan nan nan nan nan nan nan nan nan nan nan nan nan nan nan nan 0 0 0 0 0 0 0 0 nan nan nan nan nan nan nan nan nan nan nan
nan nan nan nan nan nan nan nan nan nan nan nan nan nan nan nan nan nan nan nan nan nan nan nan nan nan nan nan nan nan nan nan nan nan nan nan nan nan nan nan nan nan nan nan nan nan nan nan nan nan nan 0 nan nan nan nan nan nan nan nan nan nan nan nan nan nan nan 0 0 0 nan nan nan nan nan nan nan nan nan nan nan nan nan nan nan nan
nan nan nan nan nan nan nan nan nan nan nan nan nan nan nan nan nan nan nan nan nan nan nan nan nan nan nan nan nan nan nan nan nan nan nan nan nan nan nan nan nan nan nan nan nan nan nan nan nan nan nan nan nan nan nan nan nan nan nan nan nan nan nan nan nan nan nan 0 nan nan nan nan nan nan nan nan nan nan nan nan nan nan nan nan nan nan
nan nan nan nan nan nan nan nan nan nan nan nan nan nan nan nan nan nan nan nan nan nan nan nan nan nan nan nan nan nan nan nan nan nan nan nan nan nan nan nan nan nan nan nan nan nan nan nan nan nan 0 nan nan nan nan nan nan nan nan nan nan nan nan nan nan nan nan nan nan nan nan nan nan nan nan nan nan nan nan nan nan nan nan nan nan nan
nan nan nan nan nan nan nan nan nan nan nan nan nan nan nan nan nan nan nan nan nan nan nan nan nan nan nan nan nan nan nan nan nan nan nan nan nan nan nan nan nan nan nan nan nan nan nan nan nan nan 0 nan nan nan nan nan nan nan nan nan nan nan nan nan nan nan nan nan nan nan nan nan nan nan nan nan nan nan nan nan nan nan nan nan nan 0
nan nan nan nan nan nan nan nan nan nan nan nan nan nan nan nan nan nan nan nan nan nan nan nan nan nan nan nan nan nan nan nan nan nan nan nan nan nan nan nan nan nan nan nan nan nan nan nan nan nan nan nan nan nan nan nan nan nan nan nan nan nan nan nan nan nan nan nan nan nan nan nan nan nan nan nan nan nan nan nan nan nan nan nan nan 0
nan nan nan nan nan nan nan nan nan nan nan nan nan nan nan nan nan nan nan nan nan nan nan nan nan nan nan nan nan nan nan nan nan nan nan nan nan nan nan nan nan nan nan nan nan nan nan nan nan nan nan nan nan nan nan nan nan nan nan nan nan nan nan nan nan nan nan nan nan nan nan nan nan nan nan nan nan nan nan nan nan nan nan nan nan nan
nan nan nan nan nan nan nan nan nan nan nan nan nan nan nan nan nan nan nan nan nan nan nan nan nan nan nan nan nan nan nan nan nan nan nan nan nan nan nan nan nan nan nan nan nan nan nan nan nan nan -0 nan nan nan nan nan nan nan nan nan nan nan nan nan nan nan nan nan nan nan nan nan nan nan nan nan nan nan nan nan nan nan nan nan nan nan
nan nan nan nan nan nan nan nan nan nan nan nan nan nan nan nan nan nan nan nan nan nan nan nan nan nan nan nan nan nan nan nan nan nan nan nan nan nan nan nan nan nan nan nan nan nan nan nan nan nan nan nan nan nan nan nan nan nan nan nan nan nan nan nan nan nan nan nan nan nan nan nan nan nan nan nan nan nan nan nan nan nan nan nan nan nan
nan nan nan nan nan nan nan nan nan nan nan nan nan nan nan nan nan nan nan nan nan nan nan nan nan nan nan nan nan nan nan nan nan nan nan nan nan nan nan nan nan nan nan nan nan nan nan nan nan nan nan nan nan nan nan nan nan nan nan nan nan nan nan nan nan nan nan nan nan nan nan nan nan nan nan nan nan nan nan nan nan nan nan nan nan nan
nan nan nan nan nan nan 0 0 0 0 nan nan nan nan nan nan nan nan nan nan nan nan nan nan nan nan nan nan nan nan nan nan nan nan nan nan nan nan nan nan nan nan nan nan nan nan nan nan nan nan nan nan nan nan nan nan nan nan nan nan nan nan nan nan nan nan nan nan nan nan nan nan nan nan nan nan nan nan nan nan nan nan nan nan nan nan
0 0 0 0 0 0 0 0 0 0 0 0 nan nan nan nan nan nan nan nan nan nan nan nan nan nan nan nan nan nan nan nan nan nan nan nan nan nan nan nan nan nan nan nan nan nan nan nan nan nan nan nan nan nan nan nan nan nan nan nan nan nan nan nan nan nan nan nan nan nan nan nan nan nan nan nan nan nan nan nan nan nan nan nan nan nan
0 0 0 0 0 0 0 0 0 0 0 0 0 0 nan nan nan nan nan nan nan nan nan nan nan nan nan nan nan nan nan nan nan nan nan nan nan nan nan nan nan nan nan nan nan nan nan nan nan nan nan nan nan nan nan nan nan nan nan nan nan nan nan nan nan nan nan nan nan nan nan nan nan nan nan nan nan nan nan nan nan nan nan nan nan nan
-0 -0 0 0 0 0 0 0 0 0 0 0 0 0 nan nan nan nan nan nan nan nan nan nan nan nan nan nan nan nan nan nan nan nan nan nan nan nan nan nan nan nan nan nan nan nan nan nan nan nan nan nan nan nan nan nan nan nan nan nan nan nan nan nan nan nan nan nan nan nan nan nan nan nan nan nan nan nan nan nan nan nan nan nan nan nan
nan -1 -0 0 0 0 0 0 0 0 0 0 0 0 nan nan nan nan nan nan nan nan nan nan nan nan nan nan nan nan nan nan nan nan nan nan nan nan nan nan nan nan nan nan nan nan nan nan nan nan nan nan nan nan nan nan nan nan nan nan nan nan nan nan nan nan nan nan nan nan nan nan nan nan nan nan nan nan nan nan nan nan nan nan nan nan
nan nan nan nan nan nan nan nan 0 0 0 0 0 0 nan nan nan nan nan nan nan nan nan nan nan nan nan nan nan nan nan nan nan nan nan nan nan nan nan nan nan nan nan nan nan nan nan nan nan nan nan nan nan nan nan nan nan nan nan nan nan nan nan nan nan nan nan nan nan nan nan nan nan nan nan nan nan nan nan nan nan nan nan nan nan nan
nan nan nan nan nan nan nan nan nan nan nan nan nan nan nan nan nan nan nan nan nan nan nan nan nan nan nan nan nan nan nan nan nan nan nan nan nan nan nan nan nan nan nan nan nan nan nan nan nan nan nan nan nan nan nan nan nan nan nan nan nan nan nan nan nan nan nan nan nan nan nan nan nan nan nan nan nan nan nan nan nan nan nan nan nan nan
nan nan nan nan nan nan nan nan nan nan nan nan nan nan nan nan nan nan nan nan nan nan nan nan nan nan nan nan nan nan nan nan -0 -0 nan nan nan nan nan nan nan nan nan nan nan nan nan nan nan nan nan nan nan nan nan nan nan nan nan nan nan nan nan nan nan nan nan nan nan nan nan nan nan nan nan nan nan nan nan nan nan nan nan nan nan nan
nan nan nan nan nan nan nan nan nan nan nan nan nan nan nan nan nan nan nan nan nan nan nan nan nan nan nan nan nan nan nan nan 0 0 nan nan nan nan nan nan nan nan nan nan nan nan nan nan nan nan nan nan nan nan nan nan nan nan nan nan nan nan nan nan nan nan nan nan nan nan nan nan nan nan nan nan nan nan nan nan nan nan nan nan nan nan
nan nan nan nan nan nan nan nan nan nan nan nan nan nan nan nan nan nan nan nan nan nan nan nan nan nan nan nan nan nan nan nan -0 -0 nan nan nan nan nan nan nan nan nan nan nan nan nan nan nan nan nan nan nan nan nan nan nan nan nan nan nan nan nan nan nan nan nan nan nan nan nan nan nan nan nan nan nan nan nan nan nan nan nan nan nan nan
nan nan nan nan nan nan nan nan nan nan nan nan nan nan nan nan nan nan nan nan nan nan nan nan nan nan nan nan nan nan nan nan -1 -1 -0 nan nan nan nan nan nan nan nan nan nan nan nan nan nan nan nan nan nan nan nan nan nan nan nan nan nan nan nan nan nan nan nan nan nan nan nan nan nan nan nan nan nan nan nan nan nan nan nan nan nan nan
nan nan nan nan nan nan nan nan nan nan nan nan nan nan nan nan nan nan nan nan nan nan nan nan nan nan nan nan nan nan nan nan nan nan nan nan nan nan nan nan nan nan nan nan nan nan nan nan nan nan nan nan nan nan nan nan nan nan nan nan nan nan nan nan nan nan nan nan nan nan nan nan nan nan nan nan nan nan nan nan nan nan nan nan nan nan
nan nan nan nan nan nan nan nan nan nan nan nan nan nan nan nan nan nan nan nan nan nan nan nan nan nan nan nan nan nan nan nan nan nan nan nan nan nan nan nan nan nan nan nan nan nan nan nan nan nan nan nan nan nan nan nan nan nan nan nan nan nan nan nan nan nan nan nan nan nan nan nan nan nan nan nan nan nan nan nan nan nan nan nan nan nan
nan nan nan nan nan nan nan nan nan nan nan nan nan nan nan nan nan nan nan nan nan nan nan nan nan nan nan nan nan nan nan nan nan nan nan nan nan nan nan nan nan nan nan nan nan nan nan nan nan nan nan nan nan nan nan nan nan nan nan nan nan nan nan nan nan nan nan nan nan nan nan nan nan nan nan nan nan nan nan nan nan nan nan nan nan nan
nan nan nan nan nan nan nan nan nan nan nan nan nan nan nan nan nan nan nan nan nan nan nan nan nan nan nan nan nan nan nan nan nan nan nan nan nan nan nan nan nan nan nan nan nan nan nan nan nan nan nan nan nan nan nan nan nan nan nan nan nan nan nan nan nan nan nan nan nan nan nan nan nan nan nan nan nan nan nan nan nan nan nan nan nan nan
nan nan nan nan nan nan nan nan nan nan nan nan nan nan nan nan nan nan nan nan nan nan nan nan nan nan nan nan nan nan nan nan nan nan nan nan nan nan nan nan nan nan nan nan nan nan nan nan nan nan nan nan nan nan nan nan nan nan nan nan nan nan nan nan nan nan nan nan nan nan nan nan nan nan nan nan nan nan nan nan nan nan nan nan nan nan
nan nan nan nan nan nan nan nan nan nan nan nan nan nan nan nan nan nan nan nan nan nan nan nan nan nan nan nan nan nan nan nan nan nan nan nan nan nan nan nan nan nan nan nan nan nan nan nan nan nan nan nan nan nan nan nan nan nan nan nan nan nan nan nan nan nan nan nan nan nan nan nan nan nan nan nan nan nan nan nan nan nan nan nan nan nan
nan nan nan nan nan nan nan nan nan nan nan nan nan nan nan nan nan nan nan nan nan nan nan nan nan nan nan nan nan nan nan nan nan nan nan nan nan nan nan nan nan nan nan nan nan nan nan nan nan nan nan nan nan nan nan nan nan nan nan nan nan nan nan nan nan nan nan nan nan nan nan nan nan nan nan nan nan nan nan nan nan nan nan nan nan nan
nan nan nan nan nan nan nan nan nan nan nan nan nan nan nan nan nan nan nan nan nan nan nan nan nan nan nan nan nan nan nan nan nan nan nan nan nan nan nan nan nan nan nan nan nan nan nan nan nan nan nan nan nan nan nan nan nan nan nan nan nan nan nan nan nan nan nan nan nan nan nan nan nan nan nan nan nan nan nan nan nan nan nan nan nan nan
nan nan nan nan nan nan nan nan nan nan nan nan nan nan nan nan nan nan nan nan nan nan nan nan nan nan nan nan nan nan nan nan nan nan nan nan nan nan nan nan nan nan nan nan nan nan nan nan nan nan nan nan nan nan nan nan nan nan nan nan nan nan nan nan nan nan nan nan nan nan nan nan nan nan nan nan nan nan nan nan nan nan nan nan nan nan
nan nan nan nan nan nan nan nan nan nan nan nan nan nan nan nan nan nan nan nan nan nan nan nan nan nan nan nan nan nan nan nan nan nan nan nan nan nan nan nan nan nan nan nan nan nan nan nan nan nan nan nan nan nan nan nan nan nan nan nan nan nan nan nan nan nan nan nan nan nan nan nan nan nan nan nan nan nan nan nan nan nan nan nan nan nan
nan nan nan nan nan nan nan nan nan nan nan nan nan nan nan nan nan nan nan nan nan nan nan nan nan nan nan nan nan nan nan nan nan nan nan nan nan nan nan nan nan nan nan nan nan nan nan nan nan nan nan nan nan nan nan nan nan nan nan nan nan nan nan nan nan nan nan nan nan nan nan nan nan nan nan nan nan nan nan nan nan nan nan nan nan nan
nan nan nan nan nan nan nan nan nan nan nan nan nan nan nan nan nan nan nan nan nan nan nan nan nan nan nan nan nan nan nan nan nan nan nan nan nan nan nan nan nan nan nan nan nan nan nan nan nan nan nan nan nan nan nan nan nan nan nan nan nan nan nan nan nan nan nan nan nan nan nan nan nan nan nan nan nan nan nan nan nan nan nan nan nan nan
nan nan nan nan nan nan nan nan nan nan nan nan nan nan nan nan 0 0 nan nan nan nan nan nan nan nan nan nan nan nan nan nan nan nan nan nan nan nan nan nan nan nan nan nan nan nan nan nan nan nan nan nan nan nan nan nan nan nan nan nan nan nan nan nan nan nan nan nan nan nan nan nan nan nan nan nan nan nan nan nan nan nan nan nan nan nan
nan nan nan nan nan nan nan nan nan nan nan nan nan nan nan nan nan nan nan nan nan nan nan nan nan nan nan nan nan nan nan nan nan nan nan nan nan nan nan nan nan nan nan nan nan nan nan nan nan nan nan nan nan nan nan nan nan nan nan nan nan nan nan nan nan nan nan nan nan nan nan nan nan nan nan nan nan nan nan nan nan nan nan nan nan nan
nan nan nan nan nan nan nan nan nan nan nan nan nan nan nan nan nan nan nan nan nan nan nan nan nan nan nan nan nan nan nan nan nan nan nan nan nan nan nan nan nan nan nan nan nan nan nan nan nan nan nan 0 nan nan nan nan nan nan nan nan nan nan nan nan nan nan nan nan nan nan nan nan nan nan nan nan nan nan nan nan nan nan nan nan nan nan
Wind_Speed
2 3 3 3 2 4 6 9 10 9 8 7 7 7 7 8 9 11 13 12 11 10 9 10 11 13 17 21 23 25 25 25 25 25 25 24 24 24 24 24 24 23 23 22 22 21 21 20 20 19 19 19 18 17 17 15 14 13 12 10 9 8 7 6 6 5 4 4 4 4 4 5 6 7 8 9 10 11 12 12 13 14 14 15 15 16
2 3 3 4 3 3 5 8 9 10 9 8 7 7 8 9 9 9 9 10 10 10 9 10 12 13 15 18 21 24 24 24 24 24 24 24 24 24 24 24 23 23 23 22 22 21 21 20 19 19 19 18 18 17 16 15 14 13 11 10 9 8 7 6 6 5 5 4 4 4 5 5 6 7 8 9 10 11 12 13 13 14 14 15 15 16
2 2 3 3 3 3 4 6 7 8 9 8 7 8 10 10 9 8 7 8 9 9 9 9 10 12 13 15 19 22 23 23 24 24 24 24 24 24 24 24 23 23 23 22 22 21 20 20 19 19 19 18 18 17 16 15 14 12 11 10 9 8 7 6 6 5 5 5 5 5 5 6 7 8 8 9 10 11 12 13 14 14 15 15 16 17
2 2 2 2 3 3 3 4 5 6 7 7 8 9 10 9 8 7 7 8 8 8 8 9 9 10 10 11 15 19 22 23 23 23 23 23 23 24 24 23 23 23 23 22 22 21 21 20 20 19 19 18 17 17 15 14 13 12 11 10 9 8 7 7 6 5 5 5 5 5 6 6 7 8 9 10 11 12 12 13 14 14 15 16 16 17
2 2 2 2 2 3 3 3 4 5 6 7 8 8 8 7 7 7 7 8 8 8 7 8 8 8 8 9 12 17 21 22 23 23 23 23 23 23 23 23 23 23 23 22 22 21 21 20 20 19 18 18 17 16 15 14 13 12 11 10 9 8 7 7 6 5 5 4 4 5 6 6 7 8 9 10 11 12 13 13 14 15 15 16 17 17
2 2 1 1 2 2 3 3 4 4 5 6 7 7 7 6 6 6 7 7 7 7 7 7 7 7 8 9 13 18 21 22 23 23 23 23 22 22 23 23 22 22 22 22 22 21 21 20 20 19 18 17 16 15 14 13 12 11 10 9 9 8 7 6 5 5 4 4 4 5 6 7 8 9 9 10 11 12 13 14 14 15 16 16 17 18
1 1 1 2 2 2 3 3 3 4 4 5 6 6 7 6 6 7 7 6 6 7 7 7 7 8 9 11 14 17 19 21 22 22 22 22 22 22 22 22 22 22 22 21 21 21 20 20 19 18 17 16 16 15 14 13 12 11 10 9 8 8 7 6 5 5 4 4 4 5 6 7 8 9 10 11 11 12 13 14 15 15 16 17 18 18
2 1 2 2 2 3 3 3 3 3 3 5 6 6 6 6 6 7 7 7 6 6 7 7 8 8 8 10 12 13 14 15 16 17 18 19 20 20 21 21 21 21 21 21 21 20 20 19 18 18 17 16 15 14 13 12 11 10 9 9 8 7 6 6 5 5 4 4 4 5 6 7 8 9 10 11 11 12 13 14 15 16 16 17 18 18
3 3 2 2 3 3 3 3 3 2 2 4 6 7 8 7 6 6 7 6 6 5 6 7 8 8 8 8 9 10 11 11 11 11 12 12 13 15 18 19 20 20 20 20 20 20 19 19 18 17 16 15 15 14 13 11 10 10 9 8 8 7 6 6 5 4 4 4 5 6 7 8 9 9 10 11 12 12 13 14 15 16 16 17 18 19
3 3 3 2 2 2 3 3 2 2 3 3 5 6 7 9 9 8 7 6 4 4 4 6 8 9 8 7 7 9 10 11 12 13 13 12 13 14 15 15 16 17 19 19 19 19 18 18 17 16 16 15 14 13 12 11 10 9 8 8 7 7 6 5 5 4 4 5 5 6 7 8 9 10 10 11 12 12 13 14 15 16 17 17 18 19
3 3 3 2 2 2 3 3 2 2 3 4 4 4 4 6 8 9 10 7 5 4 4 5 6 7 8 7 7 7 9 10 11 12 14 15 15 15 15 14 15 16 18 18 18 18 17 17 16 15 15 14 14 13 11 10 9 9 8 7 7 7 6 5 4 4 4 5 6 7 7 8 9 10 11 11 12 13 14 14 15 16 17 18 18 19
3 2 2 2 2 2 2 3 3 3 4 5 5 4 4 3 5 8 10 9 7 6 5 4 4 5 6 6 6 6 7 8 8 8 9 10 11 11 11 11 13 14 15 15 16 16 16 15 15 14 13 13 13 12 11 10 9 8 8 7 7 6 5 4 3 4 4 5 6 7 8 9 9 10 11 12 13 13 14 15 16 16 17 18 18 19
3 2 2 2 2 3 3 3 3 3 3 4 5 6 4 3 3 5 7 8 8 7 6 5 4 4 5 4 4 5 6 7 7 7 6 6 6 6 6 6 7 7 8 9 10 11 13 13 13 12 12 12 12 11 11 9 9 8 7 7 6 5 4 3 3 4 5 6 6 7 8 9 10 11 11 12 13 14 14 15 16 16 17 18 19 19
3 3 2 2 2 3 3 4 4 4 4 4 4 5 5 4 4 5 5 6 6 5 6 6 5 4 4 3 3 4 5 6 6 6 6 5 4 4 5 5 5 5 5 5 5 6 9 9 8 8 10 10 10 10 10 9 8 8 7 6 5 4 3 3 3 4 5 6 7 8 8 9 10 11 12 13 13 14 15 15 16 17 17 18 19 19
4 3 4 3 3 3 3 4 4 4 4 4 4 4 4 4 5 5 6 6 6 5 5 6 6 4 3 3 2 2 4 5 6 6 6 5 4 4 4 5 5 5 4 4 4 5 7 6 5 5 6 7 8 8 8 8 8 7 7 6 5 3 3 3 4 5 5 6 7 8 9 9 10 11 12 13 13 14 15 15 16 17 17 18 19 20
4 4 4 4 4 3 3 3 4 4 4 4 4 5 6 5 5 5 7 7 6 6 6 6 5 4 3 3 2 1 3 4 5 6 7 5 3 3 4 5 5 4 4 4 4 4 4 4 4 4 4 7 8 9 9 8 8 7 6 5 4 3 3 3 4 5 6 7 7 8 9 10 11 12 12 13 14 14 15 15 16 17 18 18 19 20
3 3 4 4 4 3 2 2 3 3 4 4 4 5 6 6 6 6 7 7 6 5 5 6 6 5 2 1 2 1 1 4 5 6 7 5 3 2 3 4 5 5 4 4 3 3 4 3 3 3 4 7 8 9 8 8 7 6 5 4 3 3 3 4 5 5 6 7 8 8 9 10 11 12 12 13 14 14 15 16 16 17 18 18 19 20
2 3 3 3 3 3 3 2 2 3 4 4 4 4 4 5 5 6 6 6 6 6 6 6 6 6 5 4 2 1 1 3 5 6 6 5 4 3 3 4 4 4 4 3 3 3 3 3 3 3 5 7 8 8 8 7 6 6 5 4 3 3 4 4 5 6 6 7 8 9 10 11 11 12 13 13 14 14 15 16 16 17 18 19 19 20
3 3 3 3 3 3 3 2 2 3 4 4 5 5 4 4 4 5 5 5 6 6 6 5 5 4 5 5 4 3 2 4 5 6 7 6 4 3 3 4 4 5 4 4 3 3 3 3 4 6 8 8 8 8 7 6 6 5 4 3 3 3 4 5 5 6 7 7 8 9 10 11 12 12 13 13 14 15 15 16 16 17 18 19 20 20
4 3 3 3 4 4 3 3 3 4 5 5 5 6 6 5 5 5 4 4 4 4 4 4 4 4 4 4 4 3 3 4 4 5 6 5 4 3 3 4 5 5 4 3 2 2 3 3 4 6 8 8 8 7 6 6 5 4 4 3 3 4 4 5 5 6 7 8 9 10 11 11 12 12 13 14 14 15 15 16 17 17 18 19 20 21
3 3 2 2 3 3 4 3 4 4 5 5 5 5 5 5 5 5 4 4 3 3 3 3 3 3 4 5 5 4 3 4 4 5 4 4 3 3 2 3 5 5 4 3 2 2 3 3 3 4 6 7 7 7 6 5 4 4 3 3 3 3 4 5 6 7 8 9 9 10 11 11 12 12 13 14 14 15 15 16 17 17 18 19 20 21
3 2 2 2 1 2 2 3 4 6 6 6 6 6 5 6 6 5 5 4 4 4 4 4 4 4 5 5 5 4 2 2 3 4 4 4 4 3 2 3 4 5 4 3 2 2 3 2 3 4 6 7 7 6 5 5 4 3 3 3 3 4 4 5 6 7 8 9 10 10 11 12 12 13 13 14 14 15 15 16 17 18 19 19 20 21
3 3 3 2 2 2 2 3 4 5 6 5 5 5 4 5 5 5 4 4 4 5 5 5 6 6 6 5 5 4 3 3 2 3 4 5 4 3 2 3 4 4 3 2 2 2 3 2 3 4 6 7 7 6 5 4 3 3 2 3 3 4 5 6 7 8 9 10 10 11 11 12 12 13 13 14 14 15 15 16 17 18 19 19 20 21
4 4 4 3 3 3 3 3 4 4 4 4 4 3 4 4 4 4 4 5 5 6 6 7 7 7 6 5 4 3 3 3 2 2 3 4 4 3 3 3 4 4 3 2 2 2 3 3 3 3 4 5 5 5 4 3 2 2 2 3 3 4 5 6 7 8 9 10 10 11 11 12 12 13 13 14 14 15 16 16 17 18 19 19 20 20
4 4 4 4 5 5 5 5 5 5 5 5 5 5 6 7 8 8 7 7 6 6 7 8 8 6 4 4 3 2 2 2 2 2 3 3 4 3 2 3 4 4 4 2 2 2 3 3 2 3 3 3 4 3 2 2 2 2 3 3 4 4 5 6 7 8 9 10 10 11 12 12 13 13 13 14 14 15 16 17 17 18 18 19 19 19
6 6 7 8 9 10 11 10 10 10 9 7 7 7 7 8 8 8 7 6 6 6 8 8 7 5 4 3 2 2 1 2 2 2 2 4 4 4 2 2 3 3 4 3 2 2 3 3 2 2 2 2 2 2 1 1 2 2 3 4 4 5 6 7 8 8 9 10 11 11 12 12 13 13 14 14 15 15 16 17 17 18 18 17 17 17
10 11 12 13 14 14 15 15 15 14 14 12 11 9 8 8 8 8 7 6 6 6 7 7 6 5 4 3 3 2 1 1 1 1 2 4 4 4 3 3 3 3 4 3 2 3 3 3 2 2 2 1 1 0 1 2 2 3 3 4 4 5 6 7 8 9 9 10 11 11 12 12 13 13 14 14 15 15 16 17 17 17 16 14 13 13
12 13 14 15 15 16 16 17 17 17 16 16 16 14 10 8 8 8 7 7 6 6 7 7 7 6 4 4 3 2 2 1 1 1 2 4 4 4 3 3 3 4 4 3 2 3 3 3 2 2 1 1 0 0 2 2 2 3 4 4 5 6 7 7 8 9 10 10 11 11 12 13 13 13 14 14 15 15 16 17 17 16 13 11 8 7
11 12 14 15 15 16 16 16 16 17 18 18 17 14 9 6 6 7 8 7 7 7 6 7 6 6 5 4 4 3 2 1 1 2 3 4 4 3 3 3 3 3 3 3 2 2 2 2 2 1 1 1 1 1 1 2 2 2 3 5 6 6 7 8 8 9 10 10 11 12 12 13 13 13 14 14 15 16 16 17 16 13 9 8 6 6
8 9 11 12 13 13 13 12 13 15 17 17 15 11 5 3 3 4 6 6 7 7 7 7 6 6 5 5 4 3 2 2 3 3 3 4 4 4 4 4 4 3 3 3 2 1 2 2 1 1 0 1 1 1 1 1 1 1 2 4 5 6 7 8 9 9 10 11 11 12 12 13 13 13 14 14 15 16 16 17 15 10 6 5 5 6
5 6 6 7 8 8 8 8 9 11 13 13 11 7 4 3 2 3 4 4 5 6 7 7 7 7 7 6 5 4 3 4 4 4 3 3 4 4 5 5 4 3 3 2 3 2 1 1 1 1 0 1 1 1 1 1 1 1 1 2 3 4 7 8 8 9 10 10 11 12 12 13 13 13 14 14 15 16 16 17 14 10 6 5 5 6
4 5 4 5 5 5 5 6 6 7 7 7 6 5 5 4 4 3 3 2 3 4 5 6 7 7 6 5 5 4 4 5 6 6 4 3 3 4 5 5 4 3 1 1 2 3 2 1 1 1 1 1 1 1 1 1 1 1 1 1 2 3 6 6 7 7 8 9 10 11 12 12 13 13 14 14 15 16 16 17 15 11 7 6 6 6
4 4 4 4 4 4 4 5 5 5 5 5 4 4 5 5 5 4 3 2 2 3 4 6 6 6 5 4 3 3 3 4 6 7 6 4 3 3 4 4 4 3 1 2 2 2 2 2 2 1 1 1 1 1 1 1 1 1 0 1 1 2 4 5 5 5 5 6 7 8 10 11 11 12 13 14 14 15 16 17 16 13 9 6 5 6
5 5 5 5 5 4 4 5 5 5 5 4 4 5 4 5 5 4 4 3 3 3 3 4 5 6 5 4 3 3 3 4 6 8 7 4 4 4 4 5 5 4 3 2 2 2 2 2 2 2 1 1 1 1 1 1 1 0 0 1 1 1 3 3 3 3 4 4 4 5 6 7 8 10 11 12 13 14 15 16 16 15 13 9 7 6
5 5 5 5 5 5 5 5 5 5 5 4 5 5 5 5 4 4 4 4 4 3 3 3 3 4 4 4 4 3 3 5 7 8 6 4 4 4 4 5 5 5 4 3 2 2 2 2 3 3 2 1 1 1 1 1 1 1 1 1 0 1 2 2 2 2 3 3 3 4 4 4 5 6 8 10 12 14 15 15 15 15 15 13 10 8
5 5 5 5 5 5 5 5 5 5 5 4 4 4 5 5 5 5 4 4 5 5 5 4 3 2 2 3 4 5 5 6 8 8 6 4 4 4 4 4 5 5 4 4 3 3 3 3 3 3 3 2 1 0 1 1 1 2 2 1 1 1 2 1 1 2 2 3 3 4 4 4 4 5 6 9 12 13 14 14 14 14 14 14 13 12
5 5 5 5 5 5 5 5 5 5 4 4 4 5 5 5 5 5 5 5 5 5 6 6 5 5 5 4 4 4 5 6 7 7 6 4 4 4 4 4 4 5 4 4 4 4 4 4 3 3 2 2 1 1 0 1 2 2 2 2 2 2 2 2 2 2 2 2 3 4 4 4 5 5 6 9 10 11 12 12 12 12 13 13 14 14
5 5 5 4 5 5 5 5 4 4 4 4 5 5 5 6 6 6 5 6 6 6 6 6 6 7 10 9 7 6 6 6 7 7 6 4 4 3 4 4 4 4 3 4 4 5 4 4 4 3 1 1 2 2 1 1 1 2 2 2 2 2 2 2 2 2 2 2 3 4 5 5 5 4 5 6 6 6 7 7 8 9 10 10 12 13
5 5 5 5 5 5 5 5 5 5 4 5 5 6 6 7 7 7 6 7 7 7 8 7 7 8 10 10 10 9 8 7 7 6 6 5 4 4 5 5 4 3 2 2 3 3 4 4 4 4 3 2 2 2 1 1 1 1 2 2 2 2 2 2 2 2 2 2 3 4 5 5 4 4 4 4 5 5 5 5 6 6 7 6 8 10
5 5 4 4 4 4 5 5 5 5 5 6 6 7 7 7 7 7 7 7 7 8 8 9 8 8 8 9 9 8 8 6 6 5 5 4 4 4 4 5 4 4 3 2 2 2 3 3 3 4 4 4 3 2 1 1 1 0 1 2 2 2 3 2 2 2 2 2 3 4 4 4 4 4 5 5 4 4 4 4 4 5 5 5 5 6
5 5 4 4 4 5 5 5 6 6 6 6 6 6 6 6 6 6 6 6 6 7 7 8 8 8 8 8 8 8 7 6 6 5 4 5 5 5 4 4 4 4 3 2 2 2 3 3 4 4 3 4 4 3 3 2 1 1 2 1 0 1 2 2 2 2 2 3 3 4 5 5 5 5 5 5 4 4 4 3 3 4 5 4 4 4
5 5 4 4 4 5 5 6 6 6 6 6 6 5 5 5 6 6 6 6 5 5 5 5 6 7 8 7 7 7 7 6 6 6 6 6 5 5 4 3 3 3 3 3 3 3 3 4 4 4 4 4 4 3 3 2 1 1 2 1 1 1 2 3 3 2 2 3 3 4 6 5 5 5 5 4 4 4 4 3 4 5 5 4 4 4
4 4 4 5 5 6 7 7 7 6 5 5 5 4 4 4 5 6 7 6 6 5 5 5 6 7 7 6 5 5 5 5 6 6 6 5 5 4 3 3 3 3 3 4 4 4 4 4 4 4 3 3 4 4 4 2 2 2 1 1 2 2 2 2 3 3 3 3 3 4 4 4 3 3 3 4 4 3 3 3 4 6 6 4 4 4
4 4 4 5 5 5 6 6 5 5 5 5 5 4 4 4 5 6 6 6 6 6 5 5 6 7 8 7 6 5 4 4 5 5 6 6 5 4 4 4 3 3 3 4 4 4 4 4 4 3 3 3 4 4 4 3 2 1 1 1 2 2 2 0 2 3 3 3 3 4 4 3 3 3 3 3 3 3 3 3 4 4 5 4 4 4
5 5 5 5 5 5 5 5 5 5 5 5 5 5 4 5 5 5 6 6 6 6 6 6 6 6 6 5 5 5 4 4 4 4 5 6 7 7 6 5 4 4 4 4 3 4 4 4 4 3 3 4 4 4 3 3 2 1 1 2 2 2 1 0 1 2 2 3 4 4 3 3 3 3 4 4 4 4 3 4 4 4 4 4 4 4
5 5 5 4 5 5 6 6 5 5 5 5 5 5 4 4 5 5 6 7 6 6 5 5 5 6 6 6 6 5 5 4 4 4 3 4 5 5 5 5 5 5 5 5 4 4 4 4 4 4 4 4 4 4 3 2 2 2 1 2 2 1 1 1 1 1 2 3 3 3 3 3 3 3 4 4 4 4 3 3 4 4 4 4 4 4
5 5 5 5 4 5 5 5 5 5 5 5 5 5 4 4 5 5 6 6 6 5 5 4 5 6 7 6 6 6 6 6 5 4 4 4 4 4 4 5 6 6 6 6 6 6 6 5 4 4 4 4 4 3 3 2 2 2 1 1 1 1 1 1 2 2 1 2 2 3 3 3 3 4 4 4 3 3 3 3 3 3 4 4 4 4
6 6 5 5 5 5 5 5 5 6 6 6 5 5 4 5 6 6 5 5 6 6 5 5 5 6 7 6 5 6 7 7 6 6 5 4 4 4 4 4 5 6 7 7 8 8 7 6 6 5 4 4 3 3 2 2 2 2 1 1 1 1 1 1 2 2 2 2 2 2 2 2 3 3 3 3 3 3 3 4 4 4 3 4 4 4
6 6 5 5 5 5 5 5 5 6 6 6 6 5 4 5 7 7 5 5 5 5 5 6 7 7 6 6 5 6 7 7 6 6 5 5 4 4 4 4 5 5 6 7 7 7 7 8 8 7 5 4 4 3 2 2 1 1 1 1 1 1 0 1 2 2 2 2 2 1 1 1 1 2 2 3 3 3 3 4 4 4 4 4 4 4
5 5 6 5 5 5 5 5 5 5 6 6 6 6 5 5 5 5 5 4 5 5 5 6 7 8 7 7 6 7 7 7 6 6 5 5 5 5 5 5 5 6 6 5 4 4 4 5 6 7 9 8 6 4 2 2 1 1 1 1 0 0 0 1 2 2 2 2 2 2 1 1 1 2 3 3 2 3 3 4 4 4 4 4 4 4
6 5 5 5 5 5 5 5 5 5 6 6 6 6 6 5 5 4 4 4 4 5 5 5 6 7 8 7 7 7 7 7 7 7 6 5 5 6 6 6 6 6 6 4 4 3 3 3 3 4 7 9 9 6 2 2 1 1 1 1 1 0 0 1 1 2 2 2 2 1 2 2 2 2 3 2 2 2 3 4 4 5 5 5 5 5
Wind_Direction
350 337 328 359 63 109 117 125 129 132 135 138 143 144 141 135 134 135 138 137 136 134 133 133 133 132 131 130 130 129 128 127 126 125 124 122 121 120 120 120 120 120 121 122 123 125 127 128 128 128 128 127 125 123 121 120 119 117 116 114 113 111 107 103 97 89 79 65 49 30 14 360 348 340 333 328 323 320 317 316 316 316 318 320 323 324
352 349 340 359 33 91 115 126 130 133 136 138 139 139 135 131 129 129 131 131 131 131 131 131 131 131 131 130 130 129 129 127 126 125 124 123 122 122 122 122 123 123 124 126 127 128 128 129 128 127 125 124 122 120 118 117 116 114 113 111 109 106 102 97 90 81 69 56 40 23 8 355 345 336 329 324 320 317 316 315 316 318 321 323 325 326
358 4 354 1 24 65 114 128 131 132 132 133 133 131 128 124 122 121 122 125 127 128 127 128 128 129 129 130 129 129 128 126 125 124 123 123 123 123 124 125 126 127 128 129 129 129 129 127 126 125 123 121 119 118 117 116 116 115 114 112 110 106 101 94 86 75 63 48 32 16 2 350 340 332 325 321 318 316 316 317 319 321 324 325 327 327
12 18 359 4 20 43 87 121 127 126 123 121 119 117 115 113 111 111 115 120 121 121 119 120 122 124 125 126 126 126 125 123 123 122 122 123 123 124 125 127 128 129 130 130 129 128 127 126 125 123 121 120 119 118 118 118 118 118 117 115 112 108 103 95 86 75 61 44 27 10 355 343 333 326 321 318 317 317 318 320 322 324 326 327 328 328
17 14 354 14 29 41 53 92 112 116 112 109 107 104 102 100 101 102 105 110 112 113 111 111 113 115 117 119 121 121 120 120 120 120 121 122 123 125 127 128 129 129 129 129 128 127 126 125 124 122 121 120 120 119 120 120 120 120 119 117 114 109 103 96 87 75 60 41 21 2 346 334 326 321 318 318 318 319 320 322 325 326 328 329 329 329
11 353 342 21 40 47 48 70 92 105 105 101 97 94 91 92 94 97 100 104 107 107 105 103 103 104 107 111 114 116 116 116 117 118 120 121 123 125 127 128 128 128 128 127 127 126 125 124 123 122 121 121 121 121 121 122 121 120 119 116 111 106 100 93 83 70 54 35 13 354 337 327 322 319 318 318 319 321 322 325 327 328 330 330 330 329
28 356 11 44 49 50 53 60 78 97 108 106 100 93 87 86 86 89 93 100 104 106 104 99 96 96 98 104 108 111 112 113 114 116 118 120 122 124 125 126 127 127 126 126 125 125 124 123 122 122 122 122 122 122 122 122 121 119 117 112 107 101 95 86 76 62 45 25 3 343 331 324 320 319 319 320 321 323 325 327 329 330 331 330 330 329
94 60 55 70 71 67 61 52 53 73 108 118 114 107 97 89 85 84 84 88 95 103 106 102 98 94 94 100 104 106 108 110 111 113 116 118 120 122 124 124 125 125 125 125 124 123 122 122 122 122 123 123 123 123 122 122 120 118 114 109 103 96 88 77 65 50 33 11 351 335 326 322 320 320 320 321 323 325 327 329 330 331 331 330 330 329
117 104 79 88 96 98 89 57 32 32 79 115 122 121 118 110 101 91 83 79 82 92 106 107 104 100 96 98 100 101 103 103 106 108 111 114 117 120 122 122 123 123 123 123 122 122 121 121 122 123 124 124 124 123 122 121 119 116 111 106 99 91 80 69 55 38 18 357 340 330 325 323 321 321 321 322 324 327 329 330 331 331 330 330 329 329
109 108 98 81 81 93 105 92 57 37 58 93 110 118 123 123 119 111 98 87 77 77 93 106 110 109 104 101 100 101 101 101 103 105 109 111 115 118 119 120 121 122 121 121 120 120 121 122 124 125 125 124 124 122 121 119 116 113 108 102 94 85 73 61 45 24 1 345 334 328 325 323 322 322 322 324 327 329 331 331 331 330 330 329 329 328
101 96 95 82 63 58 82 92 84 73 80 86 86 88 100 121 125 124 119 113 103 90 86 97 107 112 114 110 107 105 104 104 104 105 107 110 112 114 114 116 118 119 119 119 119 119 121 123 125 125 125 124 122 121 119 117 114 110 104 96 88 78 68 54 35 11 348 337 331 327 325 324 323 323 324 327 329 331 332 332 331 330 329 329 328 328
115 105 94 100 93 82 76 78 79 86 99 102 100 95 87 103 120 124 125 125 122 115 105 95 93 100 110 114 114 112 110 110 110 110 109 109 110 111 112 114 115 115 115 115 116 118 121 123 124 125 124 123 121 120 118 116 112 106 99 91 83 73 62 46 22 358 341 334 330 328 326 325 325 326 328 330 332 333 333 332 331 330 329 329 328 328
116 113 101 105 110 113 114 112 109 111 122 128 130 131 128 121 116 116 117 118 119 117 113 101 87 77 78 92 108 118 118 116 116 115 113 111 111 111 112 112 111 111 111 111 113 116 120 122 123 124 123 122 120 119 117 114 109 103 94 87 78 69 55 35 8 348 337 333 330 328 327 327 328 329 331 333 334 334 333 332 331 330 329 329 329 328
119 115 110 111 118 128 138 140 142 144 148 144 136 131 126 121 113 108 106 105 104 103 101 96 86 69 49 50 77 112 122 121 118 114 110 108 109 111 111 110 109 107 105 105 108 113 117 118 120 122 122 121 120 118 116 112 106 99 91 84 75 64 46 20 357 344 337 333 330 329 329 330 331 333 335 335 335 334 332 331 330 330 330 330 329 329
137 135 135 138 143 148 154 152 150 148 143 130 119 111 104 106 109 111 109 107 103 98 93 88 80 66 39 22 32 94 127 124 121 116 110 104 100 102 108 109 108 106 104 105 107 109 113 111 113 117 121 121 120 118 115 109 101 93 89 81 72 57 32 8 351 343 338 334 332 331 331 334 335 336 336 336 334 333 331 330 330 330 331 331 330 330
148 148 149 150 153 156 163 156 146 136 125 119 118 121 122 125 125 121 118 119 117 115 110 104 95 77 34 358 353 35 129 124 120 117 113 106 96 93 105 111 111 108 106 107 107 106 104 102 105 112 120 121 119 116 112 106 99 92 87 80 66 45 18 1 350 343 338 335 334 334 335 337 338 338 337 335 333 332 330 331 331 332 332 332 332 332
147 152 153 148 149 153 156 141 128 122 119 121 127 133 136 137 135 131 127 129 130 130 134 132 129 124 110 20 341 338 129 123 118 113 109 104 95 88 99 110 114 114 109 105 103 102 101 102 105 113 121 120 116 111 106 101 97 92 86 76 58 34 10 358 349 343 339 336 337 338 340 340 340 338 336 334 332 331 331 332 333 333 333 333 333 334
148 156 153 147 147 149 147 128 114 112 118 124 127 127 124 127 129 132 135 139 142 145 150 149 147 145 143 152 181 216 162 126 118 113 107 103 98 90 89 101 107 108 104 98 95 98 106 115 123 127 123 116 112 108 102 98 94 89 81 68 47 24 6 355 348 342 340 340 341 342 343 342 340 337 334 333 332 332 333 334 335 335 335 335 335 336
159 160 156 155 152 148 143 135 130 133 137 139 136 128 120 121 125 132 138 146 150 151 151 150 147 145 141 146 155 162 152 129 120 115 111 108 105 99 95 102 104 103 98 95 95 102 113 124 130 128 122 114 109 105 100 95 90 84 73 58 39 20 3 352 346 343 342 344 345 345 345 342 339 336 334 333 333 334 335 336 336 336 337 337 338 339
159 164 169 162 152 147 146 145 144 146 149 146 139 133 131 133 135 138 144 146 145 144 140 136 133 129 125 121 123 129 140 124 115 112 111 111 111 110 106 111 110 106 99 95 96 104 112 117 117 115 114 111 107 102 97 91 85 76 64 49 31 13 359 350 346 345 346 348 348 347 345 341 337 335 334 334 335 336 337 337 338 338 339 340 341 341
150 159 165 159 156 156 158 152 148 144 145 138 133 131 135 137 140 143 145 139 135 129 118 111 111 112 112 116 121 129 140 127 121 117 113 109 108 109 109 113 112 110 107 106 106 109 112 111 109 110 112 108 105 100 94 86 78 67 54 38 21 6 353 348 347 349 351 351 350 347 343 339 337 335 335 336 337 338 338 339 339 340 341 342 343 344
129 131 123 128 145 156 148 138 137 139 140 140 142 145 147 146 147 147 146 140 131 120 107 101 98 99 102 108 112 114 100 103 116 122 116 114 116 118 118 114 114 114 115 118 119 117 115 112 110 111 112 108 103 97 90 81 71 58 42 25 9 357 349 347 350 352 354 353 350 346 341 338 337 336 336 337 338 338 339 340 341 342 344 345 346 346
110 108 102 97 88 84 94 108 120 128 134 136 140 144 144 143 143 140 136 123 112 104 100 97 93 88 87 91 88 76 53 50 72 102 109 119 127 134 131 121 118 118 121 128 127 119 111 104 99 100 104 104 100 94 85 75 61 44 24 7 355 349 347 350 353 355 355 352 348 343 340 338 337 337 338 338 339 339 340 341 342 344 346 347 348 347
110 111 110 104 98 94 95 106 114 117 118 113 106 99 94 95 92 90 88 92 97 101 102 97 92 87 83 83 77 62 39 27 36 74 101 116 125 131 132 127 124 124 126 128 125 115 105 93 81 77 84 93 92 88 79 65 45 17 358 347 343 343 345 350 354 355 354 350 345 342 339 339 338 338 338 338 339 339 340 342 344 346 348 349 349 348
118 120 121 119 118 118 120 121 122 119 115 108 101 95 89 86 83 82 83 89 97 104 106 103 102 103 104 101 91 66 32 14 22 61 101 109 115 120 126 128 128 129 130 126 117 107 103 93 79 68 65 76 80 80 71 45 9 344 333 331 334 340 345 351 354 354 351 346 343 340 339 339 339 339 338 338 339 340 341 343 345 347 349 350 349 347
124 127 128 128 128 128 130 130 128 126 122 118 114 111 109 104 100 98 97 103 111 116 115 112 114 119 123 119 112 97 53 18 20 50 97 110 117 123 131 131 129 128 128 124 114 106 106 101 91 78 67 64 67 70 47 336 318 315 317 325 332 340 347 352 353 351 348 344 342 341 340 340 339 339 338 338 339 340 342 344 346 349 350 350 349 346
126 128 129 130 132 133 135 135 133 131 128 126 127 128 126 121 117 116 120 132 137 134 126 125 126 127 125 126 127 124 101 59 40 53 91 109 118 126 141 142 135 129 126 123 122 119 116 111 108 101 89 74 58 26 268 279 293 305 316 329 338 346 352 354 353 350 346 344 342 342 341 340 340 339 339 339 340 342 344 346 348 350 351 351 349 345
128 130 132 134 135 137 138 139 138 136 134 134 136 137 137 134 134 139 150 154 150 141 135 136 137 138 139 143 141 133 115 97 97 115 113 108 114 126 144 146 140 134 129 124 116 108 101 100 101 104 103 109 121 245 255 269 290 313 329 341 349 355 357 356 353 350 346 344 344 343 343 342 341 340 340 341 343 344 346 348 350 351 352 351 348 340
126 129 132 135 137 139 140 140 140 140 140 140 142 145 147 145 150 154 158 155 150 144 141 141 142 142 139 135 128 121 124 147 177 165 133 114 115 128 144 146 146 143 134 123 102 73 51 53 65 83 107 149 176 218 253 272 298 324 338 350 357 360 0 358 354 351 348 347 346 345 344 343 343 343 343 344 346 347 349 351 351 352 353 350 345 338
124 127 131 134 136 137 138 137 139 141 142 144 145 146 143 135 141 149 151 153 152 148 144 143 141 138 133 125 121 124 166 194 195 180 145 126 127 138 147 150 154 155 146 129 108 74 26 6 7 31 121 176 191 211 243 263 286 310 325 348 356 0 0 358 355 352 350 349 347 346 345 344 344 345 346 347 349 350 352 353 354 354 353 348 343 339
126 128 129 131 131 131 131 131 134 138 141 142 140 133 107 84 91 118 139 154 155 151 145 144 144 144 144 139 143 156 179 185 186 179 156 135 136 145 153 153 159 166 162 134 120 115 104 337 312 305 272 219 214 222 231 239 253 274 292 337 352 355 357 356 354 352 350 349 347 346 345 345 345 347 348 350 352 353 354 355 355 356 352 348 345 341
126 125 124 122 121 120 120 122 125 129 133 133 127 113 97 94 97 108 125 140 144 142 140 142 145 149 155 155 158 161 162 164 172 174 159 138 132 141 154 151 155 161 159 97 106 120 130 157 208 243 249 233 228 231 234 235 243 260 304 355 353 347 347 350 351 351 349 347 345 343 343 343 345 348 350 352 353 355 355 356 356 356 355 350 345 341
122 119 117 114 112 111 113 116 118 119 120 116 111 105 103 104 104 103 100 96 105 121 133 139 143 148 155 148 136 123 122 143 162 168 161 141 131 138 151 148 149 147 113 66 74 96 113 138 154 172 200 217 223 229 240 242 245 250 19 28 0 336 333 342 348 349 346 343 340 338 337 340 344 348 352 353 354 355 356 355 355 355 355 351 345 341
122 120 117 114 112 110 111 113 113 113 113 111 111 111 110 108 103 95 85 79 83 99 122 137 145 149 151 136 114 96 101 135 157 163 159 143 135 141 148 150 150 146 130 104 90 90 94 119 135 142 158 192 223 236 243 251 259 272 59 55 12 325 318 334 343 347 343 342 335 329 327 332 340 347 351 353 354 354 354 353 353 353 353 352 349 344
127 125 123 122 120 118 116 115 113 111 110 109 110 109 106 99 92 86 80 77 76 77 83 103 127 141 145 140 134 131 135 147 158 161 155 146 139 138 144 152 153 150 142 137 128 119 113 131 142 145 143 156 197 256 268 268 284 326 20 36 1 305 297 322 339 347 345 342 333 323 318 325 338 347 350 352 352 351 350 349 348 349 351 352 352 350
134 133 132 131 130 127 124 121 116 111 107 103 100 98 95 92 88 85 83 81 80 77 72 65 64 73 96 121 132 139 146 150 155 158 154 149 141 136 139 151 155 152 144 143 140 137 132 139 144 145 140 139 148 231 291 310 339 5 11 0 337 311 297 319 346 2 355 342 331 324 324 334 344 349 350 350 349 348 346 344 343 344 348 351 353 353
141 141 141 139 136 132 128 123 117 113 108 103 97 94 92 90 88 86 83 82 82 81 77 71 64 60 61 75 98 119 134 141 146 149 147 143 135 130 131 144 154 155 145 147 147 144 136 135 136 136 128 126 134 151 246 345 3 10 359 339 324 317 314 332 357 14 7 339 328 327 334 344 350 351 350 349 348 345 342 339 339 341 345 350 352 353
147 146 145 143 139 134 129 124 120 115 111 106 102 97 93 91 89 86 84 82 82 81 81 75 70 67 67 74 82 92 107 119 126 130 131 129 124 120 124 133 148 158 153 154 153 150 142 139 137 135 119 102 102 108 113 69 30 5 333 318 316 321 326 342 359 8 2 334 332 337 348 353 354 354 351 350 349 347 342 337 336 339 345 349 351 353
152 150 148 145 141 136 131 126 121 116 111 107 105 102 99 94 89 86 83 81 80 80 81 80 78 74 72 75 79 84 90 97 104 109 113 114 117 120 126 133 144 156 161 159 154 149 143 141 143 143 139 123 105 87 71 71 60 4 321 334 341 344 342 352 359 0 347 339 345 351 356 358 359 359 355 352 351 348 343 336 336 340 347 350 351 351
154 150 145 140 133 127 123 121 119 117 113 111 109 107 104 98 92 86 82 81 81 81 82 82 80 77 72 70 70 72 74 80 87 94 101 106 114 121 129 136 143 150 154 151 144 132 125 124 124 125 129 127 126 119 91 78 84 98 50 22 2 344 335 350 356 352 343 351 359 3 3 1 1 1 356 352 348 342 336 330 332 339 349 355 353 349
151 143 133 122 112 108 107 111 115 117 119 119 116 112 109 106 103 98 93 89 88 87 87 86 83 78 71 65 60 58 58 63 70 78 89 99 108 117 126 135 140 143 143 130 111 100 104 108 109 109 109 114 113 109 102 97 102 102 91 91 33 297 312 344 352 349 347 358 7 12 13 9 6 1 354 347 339 329 320 317 325 338 351 356 356 351
144 135 124 117 112 110 113 115 116 118 119 117 116 117 120 121 120 119 114 107 103 100 100 98 95 89 80 70 61 55 53 56 64 73 82 92 102 111 120 129 135 136 128 112 98 90 91 101 107 111 117 117 111 103 93 79 58 58 77 103 99 346 348 347 341 339 353 1 8 14 19 13 4 354 345 338 329 321 319 325 342 354 1 357 353 349
131 123 118 118 119 122 123 122 121 120 119 115 116 120 127 129 127 124 121 118 117 116 112 107 103 100 95 87 77 66 58 59 65 73 79 85 90 96 102 106 113 120 119 111 102 94 86 88 92 97 105 108 107 107 108 95 60 31 33 72 77 66 41 343 326 326 345 359 9 15 17 9 357 341 333 329 324 321 326 341 355 2 5 357 349 346
115 112 114 117 120 122 122 124 125 126 124 122 122 125 128 128 126 122 120 120 120 119 115 111 106 102 98 99 98 94 85 75 71 71 74 76 76 77 79 78 77 83 95 107 112 110 98 87 83 80 79 84 91 97 103 102 86 43 3 38 72 88 106 312 310 322 342 354 2 6 6 358 347 340 342 343 339 337 340 346 352 357 359 353 350 347
113 116 120 123 126 128 129 130 130 128 125 124 126 128 130 129 126 124 123 123 123 123 124 123 116 109 104 108 112 113 109 99 85 73 65 63 65 68 69 69 68 67 70 80 95 107 110 104 99 89 78 79 83 88 94 99 91 65 19 29 52 79 124 212 316 344 358 357 355 352 349 349 355 3 7 359 352 346 343 349 353 355 354 350 350 349
118 123 128 131 133 136 137 134 131 126 122 122 125 128 130 129 127 125 126 126 127 129 133 130 123 119 121 127 128 126 121 114 103 90 72 60 56 57 63 68 71 73 72 69 70 75 88 101 108 105 94 82 74 70 73 87 88 72 27 22 29 36 26 351 348 356 5 0 351 341 334 354 22 32 22 3 348 337 335 343 351 355 352 348 348 349
129 133 136 136 136 135 135 132 130 127 125 125 126 129 131 130 128 127 127 129 130 130 130 121 116 117 124 131 133 133 129 124 119 112 101 87 77 73 72 73 75 78 80 78 74 70 70 76 86 96 101 95 83 68 50 60 72 77 57 33 32 35 31 352 332 329 346 354 342 334 339 10 28 30 17 1 346 337 335 339 345 348 349 347 348 349
137 137 138 136 135 134 134 134 133 131 130 129 128 130 133 136 135 134 131 134 133 131 127 121 117 116 120 125 131 133 131 128 125 122 117 111 104 97 92 90 86 83 81 79 77 74 70 67 67 72 83 95 99 96 74 56 62 72 76 59 53 55 42 333 317 315 329 336 332 336 6 35 38 29 14 6 357 349 341 340 343 346 349 347 348 350
135 136 137 136 135 136 138 139 136 133 132 132 131 131 136 137 138 137 136 137 135 132 129 127 125 123 123 126 130 130 127 124 123 122 122 122 121 118 114 110 103 97 90 84 80 76 71 66 62 60 64 76 91 102 104 86 72 64 60 57 69 75 39 319 312 316 327 330 332 341 33 74 83 78 56 30 8 351 341 342 346 349 349 348 351 353
132 134 136 135 136 137 139 139 136 134 134 135 135 136 137 136 136 136 134 132 130 128 128 130 129 128 129 132 134 134 131 128 126 125 127 130 131 131 129 125 120 114 107 100 92 86 78 68 59 54 52 56 65 82 106 100 82 56 41 24 32 98 95 314 310 314 325 331 338 351 26 46 68 76 72 53 22 353 342 347 351 352 349 349 353 357
133 134 135 135 136 136 136 135 134 134 134 136 137 137 137 136 136 133 130 126 125 124 124 126 128 129 132 134 136 137 136 133 132 132 135 137 138 138 137 136 133 129 125 122 117 111 103 91 69 50 42 41 44 51 91 110 106 81 48 358 331 318 85 305 305 310 325 337 353 14 34 36 40 49 60 55 34 6 352 351 351 350 346 348 353 358